Location: Berry Creek
(51.8849°N, 111.7341°W)
Time: 10:07:01
(UTC-06:00)

Daily predictions for brighter satellites

Satellite Brightness Start Highest point End
(mag) Time Altitude Azimuth Time Altitude Azimuth Time Altitude Azimuth
MetOp-A 4.2 21:56:56 10° SSE 22:02:16 78° ENE 22:07:39 10° NNW
EO 1 Delta rocket 4.5 21:55:47 10° NNE 22:02:37 70° E 22:07:56 10° S
Cosmos 2082 Rocket 2.7 21:57:16 10° NNW 22:02:51 50° NE 22:08:22 10° SE
Cosmos 1782 Rocket 4.2 22:00:50 10° SSE 22:05:00 40° E 22:09:13 10° NNE
SPOT 1/Viking Rocket 3.8 22:00:12 10° SSE 22:05:18 60° ENE 22:10:28 10° N
CZ-4B R/B 4.3 22:01:45 10° NNE 22:06:11 30° E 22:10:28 10° SSE
Coronas F rocket 3.5 22:06:26 10° SW 22:08:48 28° WNW 22:11:11 10° N
Cosmos 2263 Rocket 3.9 22:05:32 10° WSW 22:10:49 39° NW 22:16:05 10° NNE
Cosmos 1975 Rocket 3.0 22:10:22 10° N 22:14:43 76° ENE 22:19:03 10° SSE
Cosmos 1184 Rocket 3.2 22:13:58 10° S 22:17:08 43° E 22:20:22 10° NNE
DNEPR-1 R/B 4.1 22:11:29 10° NW 22:17:20 77° SW 22:22:06 10° SE
CZ-4 SHROUD 3.3 22:15:04 10° S 22:18:10 76° WSW 22:21:16 10° NNW
Cosmos 1606 3.6 22:15:57 10° NNW 22:19:47 50° W 22:23:36 10° S
Cosmos 2341 Rocket 4.1 22:14:35 10° S 22:20:49 69° E 22:27:03 10° NNE
Gbstr 26 Del rocket 3.3 22:16:07 10° W 22:21:42 86° S 22:26:12 10° E
Meteor 1-27 Rocket 4.3 22:18:16 10° NNW 22:23:45 58° W 22:29:09 10° S
Cosmos 1850 Rocket 4.1 22:20:27 10° NNW 22:25:48 84° ENE 22:31:10 10° SSE
CZ-4C R/B 4.1 22:22:24 10° SE 22:26:06 41° ENE 22:30:02 10° N
PSLV R/B 3.7 22:23:36 10° S 22:26:30 53° W 22:29:25 10° NNW
deb Chang Zheng 4 3.9 22:22:42 10° NNE 22:27:07 74° WNW 22:31:32 10° SSW
TIMED 4.5 22:22:47 10° SSW 22:27:08 74° ESE 22:31:32 10° NNE
Cosmos 1536 Rocket 4.4 22:23:12 10° N 22:27:25 38° ENE 22:31:22 11° SE
Cosmos 1378 Rocket 4.2 22:23:40 10° NNW 22:27:54 55° W 22:32:07 10° S
Timation 2 Rocket 4.0 22:22:24 10° NW 22:28:28 79° WSW 22:34:26 10° SSE
Cosmos 1908 Rocket 3.8 22:25:31 10° SSW 22:29:55 77° W 22:34:25 10° N
NOAA 11 4.2 22:27:24 10° SSE 22:32:54 83° ENE 22:38:27 10° NNW
COS B Rocket 4.1 22:29:45 10° N 22:33:55 54° W 22:37:43 10° SSW
Landsat 7 4.1 22:31:40 11° SSE 22:36:13 58° ENE 22:40:55 10° N
Cosmos 2084 3.5 22:33:41 10° SSW 22:37:19 41° SE 22:40:58 10° ENE
Cosmos 2056 Rocket 4.5 22:32:36 10° SW 22:37:36 51° WNW 22:42:37 10° NNE
SL-8 Rocket 4.2 22:32:01 10° S 22:38:08 58° E 22:44:14 10° NNE
ISS -2.0 22:39:21 10° SSW 22:41:48 20° SE 22:44:15 10° E
USA 245 3.6 22:38:31 10° S 22:41:54 65° W 22:46:11 10° NNW
Cosmos 1238 Rocket 3.8 22:40:39 10° NNW 22:43:31 35° W 22:46:43 10° SSW
Cosmos 1741 Rocket 4.2 22:40:22 10° NNW 22:45:37 73° WSW 22:50:33 11° SSE
Cosmos 2154 Rocket 4.4 22:42:41 10° SSW 22:48:52 66° WNW 22:55:04 10° N
COSMOS 2487 4.3 22:48:08 10° NW 22:51:17 28° WSW 22:54:24 10° SSW
Terra 2.1 22:47:55 14° SE 22:51:57 58° ENE 22:56:38 10° N
SL-8 R/B 3.8 22:47:47 10° WSW 22:52:28 53° S 22:57:09 10° E
SPOT 5 4.3 22:47:47 10° SSW 22:52:44 39° W 22:57:46 10° NNW
USA 229 DEB 3.9 22:46:58 10° NW 22:54:04 80° SW 23:00:15 15° SE
USA 229 3.9 22:47:03 10° NW 22:54:10 80° SW 23:00:21 15° SE
Cosmos 2151 Rocket 4.0 22:50:22 12° SSE 22:54:23 48° E 22:58:47 10° NNE
H-2A R/B 4.3 22:56:08 10° SW 22:59:19 20° W 23:02:28 10° NW
Spot 4 4.2 22:55:36 15° SE 22:59:27 54° ENE 23:04:12 10° N
Okean 1 4.0 22:55:43 10° N 22:59:36 42° ENE 23:02:20 18° SE
SL-08 RB Rocket 4.2 23:01:25 11° S 23:05:51 59° W 23:10:30 10° NNW
ASTEX 1 4.1 23:03:45 10° NNE 23:08:21 37° E 23:11:30 18° SE
APEX 3.8 23:06:14 10° SSW 23:10:20 61° ESE 23:15:46 10° NE
ARGOS 3.8 23:05:47 10° S 23:10:59 51° W 23:16:13 10° NNW
NOSS 3-1 (A) 4.3 23:05:04 10° NW 23:12:13 62° NE 23:19:56 11° ESE
Cosmos 2366 rocket 4.0 23:11:45 10° S 23:18:02 80° E 23:24:25 10° NNE
Cosmos 1300 Rocket 4.3 23:16:25 20° SSE 23:18:56 38° E 23:23:04 10° NNE
Meteor 1-25 Rocket 4.4 23:13:58 13° S 23:19:02 61° E 23:24:47 10° NNE
IGS 5A 3.4 23:16:21 19° SSE 23:19:18 90° SW 23:23:30 10° NNW
Okean 1 Rocket 3.9 23:17:40 20° SE 23:20:04 34° E 23:24:07 10° NNE
Okean 1-7 Rocket 4.0 23:15:39 10° N 23:20:05 52° ENE 23:22:51 21° SE
Cosmos 1825 4.2 23:18:02 10° SW 23:21:22 28° WNW 23:24:46 10° N
Cosmos 1420 Rocket 4.1 23:17:45 10° SSW 23:23:01 80° WNW 23:28:16 10° NNE
Okean 2 Rocket 4.2 23:22:26 10° SW 23:26:39 43° WNW 23:30:52 10° N
Cosmos 1486 Rocket 4.2 23:21:56 10° NNW 23:27:18 69° ENE 23:30:53 21° SE
Cosmos 1833 Rocket 3.0 23:22:05 10° NW 23:27:38 60° WSW 23:31:40 19° S
H-2A R/B 2.4 23:24:55 15° S 23:29:20 64° WSW 23:34:36 10° NNW
Cosmos 2278 Rocket 2.7 23:27:04 10° SW 23:32:42 63° NW 23:38:22 10° NNE
ATLAS 2AS CENTAUR R/B 3.9 23:25:18 10° NW 23:33:12 48° NNE 23:40:53 10° E
AVUM R/B 4.0 23:30:34 10° NW 23:33:59 49° WSW 23:35:39 26° S
Cosmos 1812 2.9 23:32:35 10° NNW 23:36:28 69° W 23:38:47 23° S
Cosmos 1844 Rocket 4.4 23:33:15 10° WSW 23:38:25 35° NW 23:43:36 10° NNE
CZ-4 R/B 4.3 23:35:15 10° N 23:39:54 59° WNW 23:44:28 10° SSW
NOSS 3-1 (C) 4.0 23:35:48 10° NW 23:43:07 89° NE 23:49:18 19° SE
Cosmos 2218 Rocket 4.5 23:38:08 10° SSW 23:44:28 64° WNW 23:50:52 10° N
Meteor 1-13 Rocket 4.4 23:38:49 10° NNW 23:44:47 81° ENE 23:48:42 23° SSE
Cosmos 2082 Rocket 3.3 23:41:38 10° NW 23:46:50 36° WSW 23:50:49 16° SSW
Meteor 2-4 Rocket 4.1 23:43:30 10° N 23:48:46 50° ENE 23:52:01 23° SE
USA 234 3.4 23:47:01 10° ENE 23:53:19 47° SE 23:59:34 10° SSW
Cosmos 1689 Rocket 4.4 23:54:08 14° E 23:55:20 17° ENE 23:57:30 10° NNE
SAR-Lupe-2 4.2 23:54:18 25° SSW 23:56:02 47° W 23:59:31 10° NNW
